TimeMDT,TemperatureF,Dew PointF,Humidity,Sea Level PressureIn,VisibilityMPH,Wind Direction,Wind SpeedMPH,Gust SpeedMPH,PrecipitationIn,Events,Conditions,WindDirDegrees,DateUTC
12:53 AM,28.0,21.9,78,30.35,9.0,SW,11.5,-,0.00,Snow,Light Snow,230,2013-03-12 06:53:00
1:21 AM,27.0,23.0,85,30.28,9.0,SW,12.7,-,0.00,Snow,Light Snow,230,2013-03-12 07:21:00
1:42 AM,27.0,24.1,89,30.28,9.0,SW,9.2,-,0.00,Snow,Light Snow,230,2013-03-12 07:42:00
1:53 AM,27.0,24.1,89,30.37,9.0,SW,11.5,-,0.00,Snow,Light Snow,230,2013-03-12 07:53:00
2:53 AM,26.1,23.0,88,30.38,10.0,WSW,11.5,-,0.00,,Mostly Cloudy,240,2013-03-12 08:53:00
3:53 AM,25.0,21.9,88,30.37,10.0,SW,9.2,-,N/A,,Mostly Cloudy,220,2013-03-12 09:53:00
4:53 AM,24.1,21.9,91,30.36,10.0,SSW,9.2,-,N/A,,Mostly Cloudy,210,2013-03-12 10:53:00
5:53 AM,24.1,21.0,88,30.36,10.0,WSW,11.5,-,N/A,,Partly Cloudy,240,2013-03-12 11:53:00
6:53 AM,21.9,19.9,92,30.37,10.0,WSW,12.7,-,N/A,,Mostly Cloudy,240,2013-03-12 12:53:00
7:53 AM,21.9,18.0,85,30.36,10.0,WSW,11.5,-,N/A,,Partly Cloudy,240,2013-03-12 13:53:00
8:53 AM,21.9,18.0,85,30.35,10.0,SW,10.4,-,N/A,,Scattered Clouds,220,2013-03-12 14:53:00
9:53 AM,25.0,19.0,78,30.35,10.0,South,6.9,-,N/A,,Partly Cloudy,190,2013-03-12 15:53:00
10:53 AM,28.9,17.1,61,30.33,10.0,Variable,3.5,-,N/A,,Partly Cloudy,0,2013-03-12 16:53:00
11:53 AM,32.0,17.1,54,30.31,10.0,South,4.6,-,N/A,,Mostly Cloudy,190,2013-03-12 17:53:00
12:53 PM,35.1,17.1,48,30.28,10.0,South,5.8,-,N/A,,Overcast,190,2013-03-12 18:53:00
1:53 PM,37.9,19.9,48,30.24,10.0,South,10.4,-,N/A,,Mostly Cloudy,190,2013-03-12 19:53:00
2:53 PM,43.0,19.0,38,30.18,10.0,South,9.2,-,N/A,,Overcast,170,2013-03-12 20:53:00
3:53 PM,46.0,17.1,31,30.15,10.0,SW,6.9,-,N/A,,Mostly Cloudy,220,2013-03-12 21:53:00
4:53 PM,46.9,18.0,32,30.13,10.0,WSW,6.9,-,N/A,,Overcast,240,2013-03-12 22:53:00
5:53 PM,48.0,19.0,32,30.12,10.0,SW,11.5,-,N/A,,Mostly Cloudy,220,2013-03-12 23:53:00
6:53 PM,46.9,19.9,34,30.11,10.0,SW,8.1,-,N/A,,Mostly Cloudy,220,2013-03-13 00:53:00
7:53 PM,43.0,19.9,40,30.12,10.0,South,4.6,-,N/A,,Mostly Cloudy,190,2013-03-13 01:53:00
8:53 PM,39.9,21.0,47,30.12,10.0,SSW,4.6,-,N/A,,Mostly Cloudy,200,2013-03-13 02:53:00
9:53 PM,41.0,19.9,43,30.09,10.0,SW,9.2,-,N/A,,Partly Cloudy,230,2013-03-13 03:53:00
10:53 PM,39.9,19.0,43,30.08,10.0,SW,11.5,-,N/A,,Partly Cloudy,220,2013-03-13 04:53:00
11:53 PM,41.0,19.0,41,30.06,10.0,WSW,16.1,-,N/A,,Partly Cloudy,240,2013-03-13 05:53:00